TimeCDT,TemperatureF,Dew PointF,Humidity,Sea Level PressureIn,VisibilityMPH,Wind Direction,Wind SpeedMPH,Gust SpeedMPH,PrecipitationIn,Events,Conditions,WindDirDegrees,DateUTC
12:53 AM,19.9,14.0,78,30.35,10.0,Calm,Calm,-,N/A,,Clear,0,2013-03-28 05:53:00
1:53 AM,21.0,15.1,78,30.35,10.0,Calm,Calm,-,N/A,,Clear,0,2013-03-28 06:53:00
2:53 AM,15.1,10.0,80,30.35,10.0,Calm,Calm,-,N/A,,Clear,0,2013-03-28 07:53:00
3:53 AM,18.0,14.0,84,30.34,10.0,Calm,Calm,-,N/A,,Partly Cloudy,0,2013-03-28 08:53:00
4:53 AM,10.0,6.1,84,30.35,10.0,Calm,Calm,-,N/A,,Clear,0,2013-03-28 09:53:00
5:53 AM,15.1,10.9,84,30.35,10.0,Calm,Calm,-,N/A,,Clear,0,2013-03-28 10:53:00
6:53 AM,15.1,10.9,84,30.34,10.0,Calm,Calm,-,N/A,,Overcast,0,2013-03-28 11:53:00
7:53 AM,18.0,12.9,81,30.35,10.0,Calm,Calm,-,N/A,,Scattered Clouds,0,2013-03-28 12:53:00
8:53 AM,24.1,16.0,71,30.35,10.0,SE,4.6,-,N/A,,Clear,130,2013-03-28 13:53:00
9:53 AM,30.0,19.0,64,30.34,10.0,SE,5.8,-,N/A,,Overcast,130,2013-03-28 14:53:00
10:53 AM,34.0,19.9,56,30.34,10.0,SE,8.1,-,N/A,,Partly Cloudy,140,2013-03-28 15:53:00
11:53 AM,36.0,21.0,55,30.34,10.0,SSE,10.4,-,N/A,,Partly Cloudy,160,2013-03-28 16:53:00
12:53 PM,37.9,19.9,48,30.33,10.0,South,10.4,-,N/A,,Clear,170,2013-03-28 17:53:00
1:53 PM,39.0,19.9,46,30.31,10.0,SSE,11.5,-,N/A,,Clear,160,2013-03-28 18:53:00
2:53 PM,41.0,18.0,40,30.30,10.0,SE,10.4,-,N/A,,Mostly Cloudy,140,2013-03-28 19:53:00
3:53 PM,42.1,17.1,37,30.28,10.0,SE,9.2,-,N/A,,Mostly Cloudy,140,2013-03-28 20:53:00
4:53 PM,39.9,19.9,45,30.30,10.0,SSE,5.8,-,N/A,,Mostly Cloudy,160,2013-03-28 21:53:00
5:53 PM,39.0,19.9,46,30.29,10.0,SSE,4.6,-,N/A,,Overcast,160,2013-03-28 22:53:00
6:53 PM,37.9,21.0,51,30.29,10.0,South,6.9,-,N/A,,Overcast,180,2013-03-28 23:53:00
7:53 PM,36.0,19.9,52,30.29,10.0,Calm,Calm,-,N/A,,Clear,0,2013-03-29 00:53:00
8:53 PM,34.0,19.0,54,30.29,10.0,SE,3.5,-,N/A,,Clear,140,2013-03-29 01:53:00
9:53 PM,32.0,19.9,61,30.30,10.0,SE,3.5,-,N/A,,Clear,140,2013-03-29 02:53:00
10:53 PM,28.9,19.9,69,30.29,10.0,Calm,Calm,-,N/A,,Clear,0,2013-03-29 03:53:00
11:18 PM,30.2,19.4,64,30.23,10.0,Calm,Calm,-,N/A,,Mostly Cloudy,0,2013-03-29 04:18:00
11:29 PM,30.2,19.4,64,30.23,10.0,Calm,Calm,-,N/A,,Overcast,0,2013-03-29 04:29:00
11:53 PM,30.9,19.9,64,30.28,10.0,Calm,Calm,-,N/A,,Overcast,0,2013-03-29 04:53:00